Theta_e
300 298 296 295 292 291 289 286 285 285 283 283 282 283 283 282 284 285 285 285 284 283 284 283 282 282 281 280 281 281 281 282 281 279 280 281 280 280 281 282 281 281 281
299 297 296 294 290 288 287 286 285 284 283 283 282 282 282 281 283 283 283 283 283 282 281 281 280 279 279 279 280 279 279 280 280 277 278 279 279 280 280 280 279 279 280
298 296 294 291 288 287 286 285 284 283 282 281 282 280 280 280 281 281 283 282 282 281 281 280 279 279 277 278 279 279 278 277 279 278 277 279 279 280 279 279 279 280 279
296 294 292 291 288 287 285 284 283 283 281 281 281 280 279 280 279 280 280 281 281 280 280 279 279 278 277 278 278 278 278 277 277 277 277 277 278 279 278 277 277 279 278
294 293 292 290 289 287 284 283 283 282 281 281 279 279 279 279 278 278 279 280 279 279 279 278 278 279 279 279 278 277 277 277 277 277 277 277 277 277 275 276 275 277 278
293 291 291 288 286 285 283 283 282 281 280 280 279 278 278 278 282 282 280 279 279 278 276 277 277 277 278 279 279 280 279 278 278 278 278 276 276 276 276 275 275 274 273
291 290 288 287 286 284 283 282 281 280 280 279 278 278 278 278 284 283 281 279 278 278 277 276 276 277 278 278 280 280 279 280 279 278 277 277 276 276 276 275 275 274 273
290 288 287 286 285 284 282 281 281 280 279 278 278 278 278 278 284 284 282 279 278 278 277 277 277 276 276 277 278 279 279 279 280 280 279 279 278 278 277 277 276 275 274
289 288 287 286 285 283 282 282 281 280 279 279 278 278 278 279 284 284 281 278 278 277 277 277 277 277 277 279 276 276 276 276 278 280 280 280 281 281 279 277 274 272 270
288 288 287 286 284 283 283 282 281 281 280 279 279 279 279 279 285 285 282 279 278 277 277 277 278 277 279 280 277 275 274 275 276 277 277 279 280 278 276 275 273 270 270
287 286 285 285 284 283 283 283 281 280 279 278 278 278 279 280 283 285 284 279 279 279 278 277 277 279 279 280 281 278 277 278 278 277 276 277 276 275 274 274 273 271 270
285 284 284 283 284 283 282 281 281 280 278 277 277 277 279 279 282 285 285 282 283 281 280 280 278 279 281 281 281 281 281 280 279 278 277 275 274 273 274 273 272 272 272
283 282 282 283 283 283 282 281 280 280 280 279 278 278 278 278 280 285 286 285 284 282 283 283 282 281 281 282 282 282 280 281 279 275 274 274 274 275 273 271 271 271 270
281 281 282 281 282 282 282 282 281 280 280 280 279 279 279 278 278 280 285 286 285 285 283 282 282 281 281 281 278 281 281 281 278 276 275 276 274 272 271 271 269 269 268
282 282 282 282 282 281 281 281 281 282 283 282 281 281 280 278 278 281 284 285 285 286 284 281 279 279 278 278 278 278 279 279 275 275 274 273 272 271 270 271 269 267 265
282 282 282 281 281 280 280 280 282 282 283 284 284 283 283 282 282 281 282 284 285 286 277 279 279 279 279 278 278 276 276 276 276 275 274 272 271 270 269 269 268 266 264
283 282 282 281 280 280 280 280 278 281 282 283 283 283 283 282 283 283 283 283 284 284 281 279 279 278 279 278 277 276 275 275 275 273 272 270 269 268 267 266 266 265 263
283 283 283 282 281 281 281 280 281 280 279 280 283 283 283 283 283 284 284 284 281 282 281 280 279 278 278 277 276 275 275 273 271 270 269 268 267 266 265 264 264 262 262
282 282 282 282 282 281 281 280 281 280 281 280 278 279 283 285 284 282 283 281 280 280 281 280 279 276 275 274 274 273 272 270 269 267 267 266 265 264 262 262 261 260 260
276 276 277 278 276 276 277 277 277 277 277 277 276 278 278 279 281 280 280 280 280 280 279 276 274 274 273 272 270 269 268 266 266 265 264 263 262 262 261 260 260 260 260
274 272 273 274 274 275 274 274 275 274 274 274 275 276 276 278 280 279 279 275 276 276 274 273 271 270 269 268 267 266 265 265 264 263 262 261 260 259 260 260 260 260 259
272 272 272 272 271 271 271 272 272 272 272 272 272 270 274 275 275 274 274 273 272 272 271 270 269 267 266 265 265 264 263 262 262 261 260 259 259 259 259 259 259 259 259
270 269 269 269 270 266 268 268 269 269 270 269 269 269 269 273 272 271 270 267 266 265 265 266 265 263 263 263 263 263 262 262 261 261 259 258 258 258 258 258 258 257 257
268 269 268 267 267 268 268 267 267 264 267 266 266 266 267 267 267 266 265 264 263 263 262 262 263 262 261 261 260 261 261 260 259 258 258 258 257 257 257 257 256 256 256
265 265 265 265 265 265 264 263 264 264 264 264 264 264 263 263 263 263 262 262 261 261 260 260 260 260 259 258 258 258 257 258 257 256 255 255 256 255 255 255 255 255 255
262 262 262 262 262 262 263 262 262 262 262 262 262 262 262 262 262 262 261 260 259 259 259 259 259 258 257 258 257 257 257 257 255 255 255 255 255 254 254 253 253 254 253
Wind_Speed
14 13 12 12 10 10 9 9 9 9 10 10 9 9 9 10 10 10 12 13 13 12 11 11 10 9 6 6 5 4 3 3 4 3 1 1 2 5 6 7 7 8 8
14 13 13 12 11 11 10 10 11 11 11 12 11 11 9 9 11 13 14 14 14 13 12 11 11 6 9 7 5 5 3 3 2 4 1 1 3 5 6 7 6 6 8
15 14 13 13 11 11 12 12 12 12 12 12 14 13 11 10 10 11 14 14 13 13 12 12 12 11 8 7 7 6 5 3 3 3 2 1 2 3 6 6 7 8 7
14 15 15 15 14 12 11 12 13 13 14 13 12 12 11 11 10 10 10 14 13 12 11 10 10 10 9 10 8 8 6 5 4 3 2 3 3 3 5 6 7 7 9
15 15 16 14 14 13 13 13 13 14 13 13 13 11 11 11 8 11 10 12 12 12 9 10 9 8 12 11 7 8 8 6 4 3 3 3 3 4 5 4 7 9 10
15 14 11 12 12 13 12 13 12 12 12 13 13 13 13 8 20 21 15 10 10 10 10 8 7 9 10 13 11 12 11 8 7 4 4 5 5 5 5 5 8 8 7
14 12 11 11 12 12 12 13 14 14 14 14 14 14 13 10 24 23 20 11 10 9 9 9 8 7 10 10 13 12 11 12 8 6 5 6 5 6 5 7 8 9 9
15 14 13 14 14 13 14 15 15 14 15 14 14 14 13 10 24 23 22 10 9 9 9 10 9 11 11 10 9 9 10 10 10 8 8 7 8 6 6 7 8 11 9
15 14 14 15 14 14 14 14 13 13 13 13 13 15 15 11 25 24 18 10 9 9 8 8 9 10 15 18 10 10 9 9 10 15 14 13 13 14 8 5 7 8 10
15 15 13 13 13 14 14 14 12 11 11 10 11 12 14 13 25 25 19 8 10 8 7 7 13 11 17 20 11 9 9 10 9 8 8 11 10 8 9 6 6 8 9
11 11 12 13 14 13 13 11 12 12 11 11 11 10 11 13 19 28 28 11 10 9 8 8 8 21 19 20 20 11 11 8 10 8 7 7 8 7 6 7 8 8 8
10 11 12 12 10 10 14 12 13 13 13 12 12 9 8 10 18 29 30 22 19 10 10 8 9 20 22 21 17 20 19 14 8 8 8 8 8 7 7 7 8 8 9
9 9 10 11 10 12 13 12 11 12 11 11 12 11 10 9 10 26 29 28 22 10 7 11 16 18 21 19 22 20 15 9 7 7 8 8 8 7 6 5 8 9 11
9 9 9 10 10 10 8 9 10 11 11 11 12 11 10 10 10 10 12 15 21 16 12 8 11 12 12 12 7 12 9 9 8 8 9 7 4 5 6 6 6 7 8
9 8 9 8 10 10 8 9 9 10 12 12 12 11 12 11 13 19 17 13 12 12 9 6 7 7 8 8 8 8 8 7 7 7 7 7 6 6 6 5 5 6 8
9 8 8 8 8 8 8 7 13 12 18 17 15 13 8 14 16 24 26 26 23 20 3 7 9 9 9 9 9 9 9 9 9 8 7 6 6 6 6 5 5 7 9
8 8 7 8 8 9 8 8 8 10 14 17 17 18 19 14 18 22 27 26 25 20 10 10 10 9 9 9 8 8 7 8 7 6 5 5 5 5 5 6 6 7 9
7 8 6 6 7 7 7 7 6 7 7 7 16 15 19 18 16 19 20 19 11 17 11 11 9 9 8 8 8 7 7 5 6 5 5 5 4 4 6 7 7 7 8
7 7 7 7 7 6 6 6 6 6 6 5 2 4 9 16 17 15 18 9 10 10 10 9 7 6 7 7 6 5 6 7 6 5 4 3 3 4 6 5 6 8 9
5 7 6 4 4 4 4 5 5 5 7 5 6 8 5 5 8 8 7 8 8 7 5 4 5 6 6 6 6 6 6 5 5 4 4 4 4 4 5 5 6 7 7
4 5 6 5 5 6 6 6 6 6 6 6 6 6 9 7 8 8 7 6 6 6 6 6 6 6 6 6 6 6 5 5 5 5 5 5 4 5 5 5 6 6 7
4 4 4 4 4 4 4 4 4 4 5 5 4 3 10 6 5 5 5 5 4 3 4 6 6 6 6 6 7 6 6 6 6 6 6 5 5 5 5 5 6 6 6
4 4 3 2 2 3 3 3 3 3 3 3 2 3 3 4 4 4 4 4 4 4 4 5 6 6 5 5 6 6 7 7 7 6 6 6 5 5 5 6 6 6 6
5 4 3 3 2 2 2 2 1 1 1 2 2 2 2 2 3 3 4 4 4 4 4 4 4 7 7 6 6 5 5 4 5 6 7 6 6 6 6 6 6 7 7
5 4 4 3 3 3 3 3 2 2 2 2 1 1 2 2 3 3 4 4 4 5 5 4 4 6 7 8 7 8 7 8 7 6 5 7 7 7 6 6 6 7 7
6 5 4 3 3 3 3 3 3 3 3 2 2 3 3 4 3 4 4 4 4 4 4 4 4 6 6 6 7 8 9 10 9 10 7 7 7 6 6 8 9 7 7
Wind_Direction
192 185 181 185 168 166 172 157 154 145 145 144 142 149 175 148 150 152 143 144 141 141 143 136 127 128 114 104 95 78 64 32 121 129 179 27 307 331 350 351 345 338 331
191 186 188 185 168 165 167 165 157 155 153 152 152 161 167 157 154 152 150 155 151 150 145 139 135 132 125 123 124 128 122 70 116 150 117 322 288 329 334 331 332 319 314
188 186 188 186 174 176 168 165 162 155 159 160 163 165 167 158 161 162 155 154 153 153 153 154 152 151 142 160 140 152 151 148 115 141 152 226 268 308 323 327 322 310 305
187 187 189 187 182 178 171 167 167 166 165 168 171 165 165 162 160 155 160 152 151 157 160 157 156 158 162 162 160 167 164 156 160 166 201 249 269 316 304 316 319 315 307
193 191 190 183 180 174 171 169 167 171 171 167 163 161 162 159 160 148 148 157 159 156 157 153 159 159 178 168 166 172 170 169 177 189 223 244 273 302 305 323 307 306 306
198 202 189 180 175 173 171 168 166 169 168 168 171 169 165 170 168 162 154 156 158 158 158 154 149 153 180 180 181 183 183 176 186 196 222 241 258 268 295 307 299 315 319
194 191 187 180 178 174 168 168 172 174 170 176 172 167 171 170 172 169 166 156 161 166 162 161 163 177 185 186 192 194 202 207 194 199 222 240 263 256 287 288 291 302 296
193 185 179 179 179 173 172 177 176 174 176 176 174 168 165 174 180 174 173 161 159 165 172 177 171 179 192 188 192 201 209 220 225 227 239 240 242 259 259 269 297 300 293
196 190 183 179 178 176 179 178 175 174 174 176 173 167 173 175 179 184 168 161 165 175 183 172 186 190 196 194 190 206 214 228 229 232 237 243 246 246 264 295 293 297 295
195 190 180 178 176 179 176 175 173 179 174 167 171 177 173 172 180 185 175 171 170 175 188 192 202 199 196 199 198 201 217 222 218 224 238 253 256 246 249 261 276 273 290
180 168 169 173 177 174 170 169 165 165 159 160 162 170 176 178 185 190 186 181 181 179 188 197 203 207 207 209 209 205 217 217 222 223 234 235 229 233 242 244 246 254 268
162 160 166 167 168 165 161 160 162 161 165 164 165 175 186 191 197 196 195 195 190 183 196 197 204 204 210 216 217 225 227 229 228 225 226 229 230 234 243 244 245 251 260
151 157 161 160 161 164 164 165 165 173 176 174 183 188 192 191 208 201 199 199 203 202 205 199 206 205 216 224 224 227 230 230 221 217 229 234 231 242 246 253 254 263 272
144 156 153 155 155 159 163 170 172 180 182 182 186 190 190 192 195 199 199 204 211 211 211 202 207 205 204 223 224 235 227 226 223 232 238 243 239 230 238 245 265 277 281
154 155 160 158 160 164 175 182 188 191 195 186 192 188 185 192 204 196 194 197 201 209 195 182 198 204 208 213 215 218 223 207 211 220 231 240 242 251 258 260 263 279 282
153 159 164 158 162 167 170 178 210 204 206 207 199 195 202 216 203 203 207 206 209 214 173 193 210 210 214 212 214 209 215 223 225 228 231 241 255 256 260 265 266 273 285
162 157 157 158 164 164 168 175 180 199 207 209 207 206 208 204 205 203 209 211 215 211 218 220 228 221 228 223 219 217 218 217 222 217 218 215 228 244 255 272 285 286 286
155 162 166 168 168 165 172 170 172 176 181 197 219 211 211 209 212 218 212 214 216 223 219 226 229 224 228 225 216 210 217 184 196 193 197 214 229 259 276 276 280 281 284
152 166 173 174 175 162 153 161 171 171 187 172 167 240 219 210 208 204 222 218 216 218 221 223 213 195 207 209 204 189 186 189 182 185 202 215 227 245 258 269 275 275 280
141 158 162 152 139 138 152 163 170 184 201 196 205 210 183 196 207 198 207 222 221 222 205 176 165 178 179 175 171 171 171 165 175 187 198 209 220 229 245 252 257 271 275
147 150 157 157 169 177 180 187 188 195 200 206 212 205 203 204 205 211 203 198 205 196 181 173 166 165 164 162 161 163 171 177 183 188 198 203 205 219 230 247 260 262 268
138 145 155 160 158 171 184 180 183 191 206 212 205 216 225 205 223 197 201 201 191 177 162 161 163 164 164 165 166 169 177 186 190 192 195 196 203 215 226 239 251 259 266
115 119 122 122 151 139 158 157 174 192 201 207 206 202 204 220 199 193 183 162 150 139 132 144 147 150 153 159 168 178 186 194 192 181 185 194 202 218 221 237 243 250 256
100 110 114 105 114 130 110 129 130 92 138 141 161 172 194 204 189 163 148 144 142 139 147 153 164 165 164 171 176 185 192 177 167 180 185 198 208 210 228 235 241 247 257
76 86 93 109 114 105 114 100 98 83 74 76 98 109 105 139 141 142 141 151 157 164 173 175 178 185 184 181 183 190 190 201 189 185 184 201 216 216 220 230 239 245 248
80 82 84 90 93 94 95 96 86 89 105 117 142 158 168 172 176 176 171 175 177 182 179 191 200 203 202 209 209 203 204 204 200 197 192 202 211 216 219 227 233 236 240